Powered by GoogleTranslate

Occupational Safety and Health Administration OSHA

Accident Search Results

Description, Abstract, KeywordSICNAICSDate RangeOfficeInsp Nr
Keyword: "Electrician"AllAllAllAllAll

By Date

Results 141 - 160 of 1639
Result Page: ... 3 4 5 6 7 8 9 10 11 12 ...
  # Summary Nr Event Date Report ID Fat SIC Event Description
141 202720348 03/01/2014 0950633   1731 Electrician Apprentice Incurs Partial Amputation Of Finger
142 202557609 02/06/2014 0950631   1731 Electrician Supervisor Incurs Fractures In Fall From Ladder
143 202532537 12/12/2013 0950664   2911 Falling Power Panel Crushes Electrician'S Toes
144 200376648 12/11/2013 0454510   1731 Worker Is Burned In Arc Flash From Electric Panelboard
145 202479499 11/14/2013 0950644   1731 Electrical Worker Is Injured In 12 Ft Fall From A Ladder
146 202615183 11/05/2013 1054112 X 1522,1731 One Employee Is Electrocuted And Another Is Not Injured
147 202082426 09/30/2013 0453730   1731 Electrician Injured In An Arc Flash
148 202556627 09/30/2013 0950631 X 1623 Worker Is Electrocuted While Working In Electrical Vault
149 202556635 09/24/2013 0950631 X 1731 Employee Suffers Electrocution When Contact 480 Volt Current
150 202715603 09/13/2013 0950633 X 1731 Worker Contacts Energized Conductor And Is Electrocuted
151 202715538 09/06/2013 0950633 X 1731 Electrical Worker Is Killed While Pulling Wire
152 202658464 09/05/2013 0950643   1731 Electrical Worker Is Shocked While Installing Switch Gear
153 202615100 09/05/2013 1054111   1731,1541,4911 Worker Is Burned In Arc Blast When Bolt Contacts Live Elect
154 202458287 08/27/2013 0950647 X 2099 Employee Dies From Electrocution In Amp Test
155 200075463 08/23/2013 0453720   4911 Lineman Is Shocked When Rod Contacts High Voltage Line
156 202556825 08/23/2013 0950631   1731 Worker Sustains Multiple Fractures In Fall From Ladder
157 170784524 08/15/2013 0950621   1731 Electrician Falls From Ladder And Fractures Both Heels
158 202691879 08/15/2013 0950624   1731 Electrician Is Injured By Electric Shock
159 201187077 08/12/2013 0950611   1731 Employee Is Injured In Fall From Ladder
160 201045036 08/07/2013 0953220 X 1731 Employeei Falls From H Frame, Later Dies

Thank You for Visiting Our Website

You are exiting the Department of Labor's Web server.

The Department of Labor does not endorse, takes no responsibility for, and exercises no control over the linked organization or its views, or contents, nor does it vouch for the accuracy or accessibility of the information contained on the destination server. The Department of Labor also cannot authorize the use of copyrighted materials contained in linked Web sites. Users must request such authorization from the sponsor of the linked Web site. Thank you for visiting our site. Please click the button below to continue.

Close